Montross, Virginia, United States (22520)
Lat: 38.09N, Lon: 76.83W
Wx Zone: VAZ075
Local Info
Past Weather Observations for Friday, January 23, 2015

NOTE: This archive is for the closest National Weather Service station to Montross. Information may differ from the station used for current weather conditions.

Click here for Long-term Archive

Time Weather Temperature Dewpoint Humidity Pressure Winds Precip Visibility
23:52
Overcast
Rain
36°F / 2°C 34°F / 1°C 93% 29.83 in
(1010 mb)
ENE 10.4 mph
(ENE 17 kph)
0.15 in
(3.81 mm)
1 3/4SM
23:31
Overcast
Rain
36°F / 2°C 32°F / 0°C 87% 29.86 in
(1011 mb)
ENE 11.5 mph
(ENE 19 kph)
0.10 in
(2.54 mm)
2SM
23:22
Overcast
Light Rain
36°F / 2°C 34°F / 1°C 93% 29.89 in
(1012 mb)
E 12.7 mph
(E 20 kph)
0.06 in
(1.52 mm)
3SM
22:59
Overcast
Rain
36°F / 2°C 32°F / 0°C 87% 29.89 in
(1012 mb)
E 12.7 mph
(E 20 kph)
0.03 in
(0.76 mm)
2SM
22:52
Overcast
Light Rain
36°F / 2°C 34°F / 1°C 93% 29.92 in
(1013 mb)
E 13.8 mph
(E 22 kph)
0.17 in
(4.32 mm)
2SM
22:26
Overcast
Light Rain
36°F / 2°C 34°F / 1°C 93% 29.95 in
(1014 mb)
E 10.4 mph
(E 17 kph)
0.09 in
(2.29 mm)
2 1/2SM
22:01
Overcast
Light Rain
36°F / 2°C 34°F / 1°C 93% 29.98 in
(1015 mb)
E 8.1 mph
(E 13 kph)
0.03 in
(0.76 mm)
3SM
21:52
Overcast
Light Rain
36°F / 2°C 34°F / 1°C 93% 29.98 in
(1015 mb)
E 6.9 mph
(E 11 kph)
0.18 in
(4.57 mm)
3SM
21:47
Overcast
Light Rain
36°F / 2°C 34°F / 1°C 93% 29.98 in
(1015 mb)
E 5.8 mph
(E 9 kph)
0.16 in
(4.06 mm)
3SM
20:52
Overcast
Light Rain
36°F / 2°C 34°F / 1°C 93% 30.04 in
(1017 mb)
ESE 6.9 mph
(ESE 11 kph)
0.06 in
(1.52 mm)
4SM
19:52
Overcast
Light Rain
36°F / 2°C 32°F / 0°C 87% 30.09 in
(1019 mb)
SE 4.6 mph
(SE 7 kph)
0.04 in
(1.02 mm)
6SM
18:52
Overcast
Light Rain
36°F / 2°C 30°F / -1°C 81% 30.12 in
(1020 mb)
SSE 4.6 mph
(SSE 7 kph)
0.02 in
(0.51 mm)
9SM
18:32
Overcast
Light Rain
36°F / 2°C 30°F / -1°C 81% 30.15 in
(1021 mb)
S 5.8 mph
(S 9 kph)
0.02 in
(0.51 mm)
8SM
17:52
Overcast
36°F / 2°C 28°F / -2°C 75% 30.15 in
(1021 mb)
SSE 4.6 mph
(SSE 7 kph)
0.01 in
(0.25 mm)
7SM
17:11
Overcast
36°F / 2°C 28°F / -2°C 75% 30.15 in
(1021 mb)
SE 6.9 mph
(SE 11 kph)
0.00 in
(0.00 mm)
8SM
16:52
Overcast
37°F / 3°C 27°F / -3°C 65% 30.18 in
(1022 mb)
SSE 6.9 mph
(SSE 11 kph)
- 10SM
15:52
Overcast
37°F / 3°C 27°F / -3°C 65% 30.18 in
(1022 mb)
SE 9.2 mph
(SE 15 kph)
- 10SM
14:52
Mostly Cloudy
37°F / 3°C 27°F / -3°C 65% 30.21 in
(1023 mb)
SSE 6.9 mph
(SSE 11 kph)
- 10SM
13:52
Overcast
39°F / 4°C 27°F / -3°C 61% 30.24 in
(1024 mb)
S 6.9 mph
(S 11 kph)
- 10SM
12:52
Overcast
37°F / 3°C 28°F / -2°C 70% 30.27 in
(1025 mb)
SE 9.2 mph
(SE 15 kph)
- 10SM
11:52
Overcast
39°F / 4°C 28°F / -2°C 65% 30.3 in
(1026 mb)
SE 9.2 mph
(SE 15 kph)
- 10SM
10:52
Overcast
37°F / 3°C 27°F / -3°C 65% 30.33 in
(1027 mb)
SE 8.1 mph
(SE 13 kph)
- 10SM
09:52
Mostly Cloudy
37°F / 3°C 27°F / -3°C 65% 30.36 in
(1028 mb)
SE 4.6 mph
(SE 7 kph)
- 10SM
08:52
Overcast
30°F / -1°C 27°F / -3°C 86% 30.36 in
(1028 mb)
Calm - 10SM
07:52
Overcast
27°F / -3°C 23°F / -5°C 86% 30.36 in
(1028 mb)
Calm - 10SM
06:52
Mostly Cloudy
25°F / -4°C 21°F / -6°C 86% 30.39 in
(1029 mb)
SSW 3.5 mph
(SSW 6 kph)
- 10SM
05:52
Partly Cloudy
27°F / -3°C 23°F / -5°C 86% 30.39 in
(1029 mb)
Calm - 10SM
04:52
Clear
27°F / -3°C 23°F / -5°C 86% 30.39 in
(1029 mb)
SSW 3.5 mph
(SSW 6 kph)
- 10SM
03:52
Clear
30°F / -1°C 25°F / -4°C 80% 30.39 in
(1029 mb)
W 3.5 mph
(W 6 kph)
- 10SM
02:52
Clear
34°F / 1°C 25°F / -4°C 70% 30.39 in
(1029 mb)
NW 5.8 mph
(NW 9 kph)
- 10SM
01:52
Clear
34°F / 1°C 25°F / -4°C 70% 30.39 in
(1029 mb)
NNW 6.9 mph
(NNW 11 kph)
- 10SM
00:52
Clear
36°F / 2°C 25°F / -4°C 65% 30.39 in
(1029 mb)
N 9.2 mph
(N 15 kph)
- 10SM
Time Weather Temperature Dewpoint Humidity Pressure Winds Precip Visibility


Weather for websites

WeatherForYou.com, LLC is not responsible for any damages or problems caused by this service. Current weather conditions are obtained from the closest station including government and personal stations which may have varying degrees of accuracy. Weather forecasts are derived from the NOAA NDFD. Like all things, this site belongs to Jesus Christ... He just trusts me to maintain it. If you have any questions or comments email webmaster@weatherforyou.com

Copyright © 2015, WeatherForYou.com LLC. All rights reserved.